GW0634 Weather Reports


time (UTC)temp
F
wind
direction
speed
knots
gust
knots
rain 1hr
in
rain 24hr
in
rain mn
in
humidity
%
barometer
mb
20260505130159 46 300 1.7 2.6 0.00 0.00 0.00 60 884.5
20260505124649 46 356 2.6 5.2 0.00 0.00 0.00 60 884.3
20260505124145 46 25 0.9 1.7 0.00 0.00 0.00 60 884.2
20260505123641 45 28 0.9 2.6 0.00 0.00 0.00 61 884.3
20260505123138 45 16 2.6 2.6 0.00 0.00 0.00 61 884.3
20260505122635 45 23 2.6 4.3 0.00 0.00 0.00 61 884.0
20260505122132 45 359 4.3 6.1 0.00 0.00 0.00 61 884.3
20260505121628 45 17 4.3 7.0 0.00 0.00 0.00 62 884.3
20260505121125 45 18 1.7 2.6 0.00 0.00 0.00 62 883.8
20260505120621 44 19 0.0 0.0 0.00 0.00 0.00 63 883.6
20260505120117 44 304 2.6 4.3 0.00 0.00 0.00 63 883.2
20260505115612 44 35 2.6 5.2 0.00 0.00 0.00 63 883.1
20260505115110 44 27 1.7 1.7 0.00 0.00 0.00 63 883.1
20260505114606 44 22 1.7 2.6 0.00 0.00 0.00 63 883.2
20260505114103 44 15 1.7 1.7 0.00 0.00 0.00 63 883.1
20260505113559 44 22 1.7 4.3 0.00 0.00 0.00 63 883.1
20260505113056 44 339 4.3 7.0 0.00 0.00 0.00 62 883.2
20260505112552 44 317 3.5 7.0 0.00 0.00 0.00 63 883.1
20260505112050 44 31 1.7 2.6 0.00 0.00 0.00 63 883.1
20260505111544 44 30 0.9 2.6 0.00 0.00 0.00 64 883.1
20260505111040 45 54 0.0 0.9 0.00 0.00 0.00 64 883.2
20260505110537 45 26 3.5 5.2 0.00 0.00 0.00 64 883.5
20260505102009 47 41 3.5 4.3 0.00 0.00 0.00 61 883.4
20260505101508 47 344 0.9 2.6 0.00 0.00 0.00 60 883.1
20260505101004 48 35 2.6 4.3 0.00 0.00 0.00 60 882.9
20260505100501 48 34 2.6 4.3 0.00 0.00 0.00 59 882.9
20260505095957 48 277 3.5 4.3 0.00 0.00 0.00 59 882.8
20260505095454 48 4 0.0 0.0 0.00 0.00 0.00 59 882.7
20260505094950 49 64 5.2 8.7 0.00 0.00 0.00 58 882.7
20260505094447 49 32 2.6 5.2 0.00 0.00 0.00 58 882.6
20260505093943 49 115 2.6 2.6 0.00 0.00 0.00 58 882.6
20260505093440 50 22 2.6 4.3 0.00 0.00 0.00 58 882.7
20260505092937 50 257 1.7 2.6 0.00 0.00 0.00 58 883.0
20260505092435 50 15 2.6 5.2 0.00 0.00 0.00 58 882.7
20260505091932 50 339 6.1 8.7 0.00 0.00 0.00 57 882.8
20260505091430 51 346 6.1 8.7 0.00 0.00 0.00 57 882.7
20260505090928 51 8 7.0 9.6 0.00 0.00 0.00 57 882.9
20260505090426 51 12 7.0 11.3 0.00 0.00 0.00 58 882.7
20260505085922 51 352 0.9 1.7 0.00 0.00 0.00 58 882.5
20260505085420 51 353 2.6 4.3 0.00 0.00 0.00 58 882.8
20260505084918 51 253 3.5 4.3 0.00 0.00 0.00 57 882.8
20260505084416 52 277 4.3 6.1 0.00 0.00 0.00 59 882.5
20260505083914 52 341 3.5 5.2 0.00 0.00 0.00 59 882.3
20260505083411 52 266 1.7 2.6 0.00 0.00 0.00 59 882.5
20260505082907 52 38 2.6 5.2 0.00 0.00 0.00 58 882.4
20260505082403 53 323 6.1 7.0 0.00 0.00 0.00 58 882.3
20260505081900 53 286 2.6 2.6 0.00 0.00 0.00 58 882.2
20260505081357 54 55 3.5 6.1 0.00 0.00 0.00 58 882.0
20260505080854 54 352 7.8 11.3 0.00 0.00 0.00 57 882.1
20260505080350 54 343 3.5 4.3 0.00 0.00 0.00 56 882.0
20260505075845 55 181 2.6 4.3 0.00 0.00 0.00 55 881.8
20260505075342 55 0 0.9 1.7 0.00 0.00 0.00 54 881.8
20260505074840 56 228 1.7 6.1 0.00 0.00 0.00 53 881.6
20260505074337 56 155 1.7 2.6 0.00 0.00 0.00 51 881.6
20260505073834 57 27 2.6 4.3 0.00 0.00 0.00 48 881.5
20260505073332 59 237 1.7 1.7 0.00 0.00 0.00 38 881.8
20260505072829 59 336 2.6 4.3 0.00 0.00 0.00 37 881.5
20260505072325 60 351 3.5 5.2 0.00 0.00 0.00 36 881.4
20260505071821 60 1 5.2 7.0 0.00 0.00 0.00 35 881.5
20260505071317 61 350 4.3 5.2 0.00 0.00 0.00 35 881.6
20260505070816 61 282 5.2 6.1 0.00 0.00 0.00 34 881.3
20260505070312 61 319 2.6 5.2 0.00 0.00 0.00 34 881.0
20260505065807 62 331 2.6 4.3 0.00 0.00 0.00 33 881.2
20260505065304 62 356 2.6 4.3 0.00 0.00 0.00 32 881.1
20260505064801 62 356 2.6 5.2 0.00 0.00 0.00 32 880.8
20260505064258 62 2 5.2 7.0 0.00 0.00 0.00 31 880.6
20260505063756 62 343 4.3 5.2 0.00 0.00 0.00 31 880.7
20260505063252 62 343 3.5 5.2 0.00 0.00 0.00 30 880.6
20260505062749 63 315 2.6 4.3 0.00 0.00 0.00 28 880.5
20260505062246 63 291 3.5 5.2 0.00 0.00 0.00 28 880.4
20260505061743 64 347 1.7 2.6 0.00 0.00 0.00 27 880.4
20260505061241 64 347 4.3 7.0 0.00 0.00 0.00 26 880.4
20260505060738 64 9 4.3 7.0 0.00 0.00 0.00 25 880.2
20260505060235 64 315 3.5 5.2 0.00 0.00 0.00 24 880.1
20260505055730 64 255 4.3 6.1 0.00 0.00 0.00 24 880.0
20260505055227 64 8 4.3 6.1 0.00 0.00 0.00 23 880.2
20260505054724 63 250 5.2 6.1 0.00 0.00 0.00 23 880.0
20260505054222 63 250 7.0 8.7 0.00 0.00 0.00 23 879.7
20260505053720 63 258 5.2 7.0 0.00 0.00 0.00 23 879.9
20260505053216 63 288 7.8 8.7 0.00 0.00 0.00 23 879.8
20260505052714 63 275 11.3 14.8 0.00 0.00 0.00 23 879.9
20260505052210 64 248 6.1 7.8 0.00 0.00 0.00 23 879.8
20260505051708 64 264 8.7 11.3 0.00 0.00 0.00 22 879.7
20260505051206 64 260 5.2 8.7 0.00 0.00 0.00 22 879.7
20260505050703 65 261 8.7 11.3 0.00 0.00 0.00 21 879.6
20260505050201 64 266 6.1 7.0 0.00 0.00 0.00 22 879.7
20260505041631 64 299 5.2 8.7 0.00 0.00 0.00 23 879.7
20260505041128 64 260 4.3 6.1 0.00 0.00 0.00 22 879.8
20260505040625 65 306 4.3 7.0 0.00 0.00 0.00 22 879.9
20260505040122 66 283 6.1 7.0 0.00 0.00 0.00 21 879.7
20260505035618 66 277 8.7 9.6 0.00 0.00 0.00 21 879.6
20260505035115 66 276 9.6 11.3 0.00 0.00 0.00 20 879.5
20260505034612 67 261 7.8 9.6 0.00 0.00 0.00 20 879.7
20260505034109 67 290 6.1 8.7 0.00 0.00 0.00 20 879.6
20260505033605 67 292 8.7 12.2 0.00 0.00 0.00 20 879.6
20260505033104 67 230 9.6 13.0 0.00 0.00 0.00 19 879.7
20260505032601 67 257 7.0 7.8 0.00 0.00 0.00 20 879.5
20260505032057 68 292 7.8 9.6 0.00 0.00 0.00 20 879.4
20260505031555 68 278 7.8 9.6 0.00 0.00 0.00 19 879.3
20260505031051 68 278 7.0 9.6 0.00 0.00 0.00 19 879.1
20260505030548 68 257 6.1 7.0 0.00 0.00 0.00 19 879.3
20260505030044 68 318 6.1 8.7 0.00 0.00 0.00 19 879.2
20260505025540 69 256 4.3 7.8 0.00 0.00 0.00 18 879.1
20260505025039 69 233 6.1 7.8 0.00 0.00 0.00 18 879.0
20260505024536 69 236 8.7 12.2 0.00 0.00 0.00 17 878.8
20260505024033 69 264 5.2 7.0 0.00 0.00 0.00 17 878.7
20260505023530 69 262 6.1 7.0 0.00 0.00 0.00 16 878.8
20260505023027 69 244 9.6 12.2 0.00 0.00 0.00 16 878.7
20260505022525 70 233 7.0 9.6 0.00 0.00 0.00 16 878.7
20260505022022 70 254 7.0 8.7 0.00 0.00 0.00 16 878.8
20260505021518 70 268 6.1 7.8 0.00 0.00 0.00 17 878.7
20260505021015 70 228 2.6 2.6 0.00 0.00 0.00 18 878.7
20260505020514 70 251 4.3 5.2 0.00 0.00 0.00 18 878.4
20260505020012 70 225 1.7 1.7 0.00 0.00 0.00 19 878.7
20260505015509 70 245 2.6 2.6 0.00 0.00 0.00 19 878.2
20260505015006 70 222 0.9 0.9 0.00 0.00 0.00 19 878.3
20260505014503 71 225 0.9 0.9 0.00 0.00 0.00 18 878.4
20260505014000 71 233 3.5 4.3 0.00 0.00 0.00 18 878.4
20260505013457 71 222 3.5 5.2 0.00 0.00 0.00 18 878.2
20260505012954 72 253 3.5 4.3 0.00 0.00 0.00 18 878.3
20260505012452 72 240 0.9 1.7 0.00 0.00 0.00 18 878.4
20260505011949 73 244 2.6 4.3 0.00 0.00 0.00 18 878.3
20260505011445 73 243 3.5 4.3 0.00 0.00 0.00 18 878.3
20260505010942 73 241 4.3 5.2 0.00 0.00 0.00 17 878.1
20260505010437 74 257 4.3 7.0 0.00 0.00 0.00 17 878.3
20260505005934 74 246 4.3 6.1 0.00 0.00 0.00 17 878.3
20260505005431 75 241 4.3 6.1 0.00 0.00 0.00 17 878.4
20260505004928 75 235 4.3 6.1 0.00 0.00 0.00 16 878.3
20260505004425 75 189 4.3 6.1 0.00 0.00 0.00 16 878.4
20260505003922 75 260 6.1 7.8 0.00 0.00 0.00 15 878.3
20260505003419 75 269 7.0 7.8 0.00 0.00 0.00 15 878.6
20260505002915 76 247 6.1 7.8 0.00 0.00 0.00 16 878.4
20260505002411 76 272 4.3 7.0 0.00 0.00 0.00 17 878.4
20260505001910 76 242 1.7 1.7 0.00 0.00 0.00 18 878.4
20260505001407 76 237 2.6 2.6 0.00 0.00 0.00 18 878.6
20260505000904 76 251 1.7 2.6 0.00 0.00 0.00 18 878.4
20260505000402 76 234 4.3 6.1 0.00 0.00 0.00 18 878.8
20260504235858 77 238 6.1 7.0 0.00 0.00 0.00 18 878.8
20260504235355 77 202 4.3 6.1 0.00 0.00 0.00 18 878.9
20260504234852 77 252 4.3 7.0 0.00 0.00 0.00 20 878.7
20260504234349 77 149 3.5 5.2 0.00 0.00 0.00 21 878.8
20260504233846 77 224 5.2 7.0 0.00 0.00 0.00 19 878.8
20260504233341 77 228 8.7 9.6 0.00 0.00 0.00 20 879.1
20260504232838 78 223 6.1 8.7 0.00 0.00 0.00 20 878.8
20260504232336 78 209 3.5 5.2 0.00 0.00 0.00 18 879.1
20260504231832 78 244 5.2 9.6 0.00 0.00 0.00 19 878.8
20260504231329 78 196 7.0 8.7 0.00 0.00 0.00 20 878.9
20260504230825 78 230 7.8 8.7 0.00 0.00 0.00 18 878.9
20260504230323 78 228 2.6 5.2 0.00 0.00 0.00 18 879.1
20260504225822 79 214 6.1 7.8 0.00 0.00 0.00 19 878.9
20260504225317 78 244 1.7 2.6 0.00 0.00 0.00 21 879.0
20260504224815 78 232 4.3 5.2 0.00 0.00 0.00 19 879.1
20260504224312 79 243 1.7 2.6 0.00 0.00 0.00 19 879.2
20260504223809 79 242 7.8 9.6 0.00 0.00 0.00 18 879.2
20260504223304 79 270 5.2 7.0 0.00 0.00 0.00 18 879.1
20260504222801 79 237 5.2 6.1 0.00 0.00 0.00 18 879.2
20260504222258 79 264 5.2 6.1 0.00 0.00 0.00 18 879.3
20260504221756 79 247 4.3 5.2 0.00 0.00 0.00 18 879.4
20260504221253 79 260 7.0 7.8 0.00 0.00 0.00 19 879.5
20260504220749 78 327 5.2 7.0 0.00 0.00 0.00 19 879.5
20260504220246 78 279 7.8 9.6 0.00 0.00 0.00 19 879.4
20260504215744 78 202 7.8 8.7 0.00 0.00 0.00 20 879.4
20260504215240 77 217 5.2 6.1 0.00 0.00 0.00 20 879.5
20260504214736 78 221 5.2 6.1 0.00 0.00 0.00 19 879.7
20260504214232 78 248 9.6 11.3 0.00 0.00 0.00 19 879.6
20260504213729 78 226 4.3 7.0 0.00 0.00 0.00 20 880.0
20260504213226 77 229 4.3 5.2 0.00 0.00 0.00 20 880.2
20260504212723 78 225 0.0 0.9 0.00 0.00 0.00 21 880.3
20260504212219 77 210 4.3 5.2 0.00 0.00 0.00 19 880.2
20260504211717 78 265 4.3 6.1 0.00 0.00 0.00 20 880.3
20260504211213 78 290 1.7 2.6 0.00 0.00 0.00 20 880.4
20260504210711 78 278 5.2 6.1 0.00 0.00 0.00 19 880.3
20260504210207 79 261 1.7 5.2 0.00 0.00 0.00 22 880.6
20260504205704 77 262 6.1 7.8 0.00 0.00 0.00 21 880.5
20260504205202 79 269 1.7 2.6 0.00 0.00 0.00 21 880.7
20260504204700 79 293 4.3 5.2 0.00 0.00 0.00 21 881.0
20260504204159 78 265 5.2 7.0 0.00 0.00 0.00 20 881.1
20260504203657 79 278 7.0 11.3 0.00 0.00 0.00 21 880.8
20260504203154 77 229 5.2 6.1 0.00 0.00 0.00 21 880.8
20260504202649 78 224 0.9 1.7 0.00 0.00 0.00 21 881.1
20260504202146 78 270 2.6 2.6 0.00 0.00 0.00 21 881.3
20260504201643 77 209 2.6 4.3 0.00 0.00 0.00 22 881.4
20260504201141 77 220 4.3 6.1 0.00 0.00 0.00 22 881.2
20260504200637 78 233 4.3 6.1 0.00 0.00 0.00 21 881.3
20260504200134 79 262 4.3 6.1 0.00 0.00 0.00 20 881.3
20260504195630 78 254 0.9 4.3 0.00 0.00 0.00 22 881.4
20260504195126 78 262 6.1 7.8 0.00 0.00 0.00 21 881.7
20260504194623 78 220 1.7 1.7 0.00 0.00 0.00 20 881.5
20260504194119 78 276 7.0 9.6 0.00 0.00 0.00 21 881.6
20260504193615 79 252 1.7 2.6 0.00 0.00 0.00 20 881.4
20260504193114 78 279 3.5 4.3 0.00 0.00 0.00 20 881.5
20260504192612 78 271 5.2 7.8 0.00 0.00 0.00 19 881.6
20260504192110 78 341 2.6 4.3 0.00 0.00 0.00 19 881.7
20260504191608 78 272 3.5 4.3 0.00 0.00 0.00 18 881.9
20260504191104 78 243 5.2 7.0 0.00 0.00 0.00 18 881.8
20260504190600 78 255 4.3 5.2 0.00 0.00 0.00 17 881.7
20260504190056 79 344 4.3 6.1 0.00 0.00 0.00 19 882.0
20260504185553 78 249 0.0 0.0 0.00 0.00 0.00 18 881.7
20260504185050 79 257 7.0 7.8 0.00 0.00 0.00 19 881.8
20260504184545 78 250 1.7 1.7 0.00 0.00 0.00 20 881.8
20260504184041 79 192 6.1 7.0 0.00 0.00 0.00 20 882.1
20260504183538 78 46 3.5 5.2 0.00 0.00 0.00 20 882.0
20260504183036 76 243 3.5 6.1 0.00 0.00 0.00 22 882.0
20260504182533 76 230 5.2 7.0 0.00 0.00 0.00 23 882.2
20260504182030 76 240 7.8 9.6 0.00 0.00 0.00 23 882.2
20260504181527 77 265 7.8 11.3 0.00 0.00 0.00 23 882.2
20260504181026 75 250 3.5 4.3 0.00 0.00 0.00 25 882.3
20260504180524 75 236 7.8 9.6 0.00 0.00 0.00 25 882.5
20260504180023 74 242 8.7 13.0 0.00 0.00 0.00 25 882.5
20260504175519 73 241 10.4 13.9 0.00 0.00 0.00 25 882.5
20260504175016 73 218 7.0 8.7 0.00 0.00 0.00 26 882.7
20260504174514 73 259 7.8 8.7 0.00 0.00 0.00 26 882.8
20260504174011 74 258 4.3 5.2 0.00 0.00 0.00 26 882.9
20260504173508 73 264 4.3 6.1 0.00 0.00 0.00 26 882.9
20260504173005 73 258 8.7 12.2 0.00 0.00 0.00 26 882.9
20260504172501 73 322 9.6 11.3 0.00 0.00 0.00 26 883.0
20260504171957 73 282 6.1 8.7 0.00 0.00 0.00 26 882.7
20260504171455 73 263 7.0 8.7 0.00 0.00 0.00 27 883.0
20260504170951 72 239 7.0 12.2 0.00 0.00 0.00 27 882.9
20260504170447 72 309 8.7 11.3 0.00 0.00 0.00 26 882.7
20260504160407 72 261 7.8 9.6 0.00 0.00 0.00 27 883.1
20260504150831 69 247 0.0 0.9 0.00 0.00 0.00 33 883.9
20260504150328 68 244 6.1 7.8 0.00 0.00 0.00 33 884.1
20260504141258 65 241 3.5 4.3 0.00 0.00 0.00 34 884.0
20260504140755 65 325 7.0 8.7 0.00 0.00 0.00 33 884.0
20260504140250 65 230 4.3 6.1 0.00 0.00 0.00 34 884.0